Location: Feydey
(46.3431°N, 7.0106°E)
Time: 06:52:09
(UTC+00:00)

Cosmos 2100 Rocket - Visible Passes

Search period start: 26 October 2021 00:00
Search period end: 05 November 2021 00:00
Orbit: 957 x 1000 km, 82.9° (Epoch: 25 October)

Date Brightness Start Highest point End Pass type
(mag) Time Alt. Az. Time Alt. Az. Time Alt. Az.
26 Oct 6.8 03:56:33 10° NNE 03:59:44 14° ENE 04:02:54 10° E visible
26 Oct 5.0 17:29:17 10° SE 17:34:10 24° E 17:39:05 10° NNE visible
26 Oct 4.4 19:12:51 10° SSW 19:19:05 61° WNW 19:25:25 10° N visible
26 Oct 6.8 21:04:15 10° WNW 21:06:00 11° NW 21:07:45 10° NW visible
27 Oct 6.3 04:21:34 10° NNE 04:26:36 24° ENE 04:31:33 10° ESE visible
27 Oct 4.3 17:54:11 10° SSE 18:00:03 42° E 18:05:58 10° NNE visible
27 Oct 5.4 19:39:49 10° SW 19:45:34 36° WNW 19:51:24 10° N visible
28 Oct 5.5 04:47:16 10° N 04:53:13 40° ENE 04:59:05 10° SE visible
28 Oct 3.9 18:19:50 10° S 18:26:08 73° E 18:32:30 10° NNE visible
28 Oct 6.2 20:07:32 10° WSW 20:12:15 21° WNW 20:17:00 10° NNW visible
29 Oct 6.9 03:30:17 10° NNE 03:32:54 13° ENE 03:35:28 10° E visible
29 Oct 4.5 05:13:17 10° N 05:19:39 68° E 05:25:55 10° SSE visible
29 Oct 5.1 17:02:56 10° SE 17:07:33 22° E 17:12:12 10° NE visible
29 Oct 4.3 18:46:05 10° SSW 18:52:22 67° W 18:58:45 10° N visible
29 Oct 6.8 20:36:36 10° W 20:39:08 12° WNW 20:41:43 10° NNW visible
30 Oct 6.4 03:55:02 10° NNE 03:59:47 22° ENE 04:04:30 10° ESE visible
30 Oct 4.5 17:27:40 10° SSE 17:33:24 38° E 17:39:12 10° NNE visible
30 Oct 5.3 19:12:55 10° SW 19:18:48 39° WNW 19:24:46 10° N visible
31 Oct 5.6 04:20:39 10° N 04:26:27 36° ENE 04:32:11 10° SE visible
31 Oct 4.0 17:53:11 10° S 17:59:27 66° E 18:05:46 10° NNE visible
31 Oct 6.1 19:40:29 10° WSW 19:45:27 23° WNW 19:50:28 10° NNW visible
01 Nov 6.9 03:04:13 10° NE 03:06:02 11° NE 03:07:50 10° ENE visible
01 Nov 4.6 04:46:37 10° N 04:52:56 62° ENE 04:59:08 10° SSE visible
01 Nov 4.2 18:19:18 10° SSW 18:25:39 74° W 18:32:04 10° N visible
01 Nov 6.7 20:09:11 10° W 20:12:18 14° WNW 20:15:27 10° NNW visible
02 Nov 6.5 03:28:31 10° NNE 03:32:58 20° ENE 03:37:23 10° ESE visible
02 Nov 4.0 05:12:51 10° N 05:19:12 79° W 05:25:27 10° S visible
02 Nov 4.6 17:01:10 10° SSE 17:06:45 34° E 17:12:24 10° NNE visible
02 Nov 5.1 18:46:03 10° SW 18:52:03 43° WNW 18:58:08 10° N visible
03 Nov 5.7 03:54:01 10° N 03:59:41 33° ENE 04:05:15 10° SE visible
03 Nov 4.3 05:39:18 10° NNW 05:45:17 45° W 05:51:11 10° SSW visible
03 Nov 4.1 17:26:33 10° S 17:32:46 59° E 17:39:01 10° NNE visible
03 Nov 6.0 19:13:27 10° WSW 19:18:39 26° WNW 19:23:53 10° NNW visible
04 Nov 4.7 04:19:56 10° N 04:26:11 56° ENE 04:32:19 10° SSE visible
04 Nov 4.1 17:52:34 10° S 17:58:56 81° W 18:05:22 10° N visible
04 Nov 6.7 19:41:53 10° W 19:45:28 15° WNW 19:49:05 10° NNW visible
